Showing default

GONETS M 14 (M24), 44905

Orbit data source: Space-Track

GONETS M 14 (M24), 44905 is a payload satellite owned by Gonets (CIS) in LEO that was launched on Thu, 26 Dec 2019 UTC via an ROKOT launch vehicle from the Plesetsk Missile And Space Complex (PKMTR). Payload-class satellites include a variety of spacecraft equipped with specific instruments for various scientific and technological missions. These include communications satellites like Starlink; space stations such as the ISS; scientific satellites like the Hubble; Earth observation satellites from companies like Planet Labs, Umbra, and HawkEye 360; GPS; miniature CubeSats for education and research; and military/defense satellites.

Loading next visibility...
Identifier
44905, 2019-096A
Orbit
LEO
Country
Flag of CISCIS
Related business
Manufacturer
Resehetnev ISS
Mission
Operational Commercial Communications
Bus & Motor
STRELA-3M, Unknown motor
Mass
225 kg wet, 225 kg dry
Launch date (UTC)
2019-12-26 (6 years ago)
Launch vehicle
ROKOT
Launch site
Plesetsk Missile And Space Complex (PKMTR)
Object type
Payload
Rocket body
Debris
Shape & HBR
Cyl + 1 Ant, 3.5 m
Radar Cross Section
1.798 m², Large (>1 m²)

Expand to show TLE details & history
Last TLE update: 6 hours ago

TLE from 6 hours ago
0 GONETS M 14 (M24)
1 44905U 19096A   26036.51397986 -.00000036  00000-0 -32965-3 0  9991
2 44905  82.5268 166.2599 0014215  83.8631 276.4068 12.42865887277320
Epoch: 2026-02-05T12:20Z
TLE epoch observation values (Epoch: 2026-02-05T12:20:07.859Z)
Latitude
-0.00003°
Longitude
-154.43797°
Altitude
1,495.945 km
Speed
7.117 km/s
True Right ascension
11h 05m 02s
True Declination
0° 00' 00"
Sunlit
Object was in full shadow at epoch
Visualization orbit readout
Latitude
Unknown
Longitude
Unknown
Altitude
Unknown
Speed
Unknown
Apparent Right ascension
Unknown
Apparent Declination
Unknown
Sunlit
N/A
Visualization observer readout
Local Sidereal Time
20:51:46
Azimuth
Unknown
Elevation
Unknown
Doppler factor
Unknown
Orbital elements
Apogee altitude
1,503.015 km
Perigee altitude
1,480.641 km
Semi-major axis
7,869.965 km
Eccentricity
0.00142
Inclination
82.5268°
RAAN
166.2599°
Arg. of periapsis
83.8631°
True anomaly
276.24489°
Mean anomaly
276.4068°
Eccentric anomaly
276.32585°
Mean motion
3.10874 °/min
Orbital period
115.8 mins
BSTAR
-0.00032965
Loading maneuver chart data...
Computing Atmospheric mass density...
Loading historical data...
Loading historical data...
Loading historical data...
Loading historical data...
Loading historical data...
Loading historical data...
Loading historical data...
Other satellites on launch #96 in the year 2019 (2019-12-26 UTC)

Documentation

Showing up to 5 results
|